Location: College Park
(38.9810°N, 76.9370°W)
Time: 01:36:16
(UTC-04:00)

Amateur Radio Satellites - All Passes

Search period start: 19 October 2017 01:06
Search period end: 20 October 2017 01:06
Location: College Park, 38.9810°N, 76.9370°W

Satellite Date Start Highest point End Downlink Frequencies (MHz)
Time Altitude Azimuth
QB50P2 19 Oct 01:10:14 01:14:32 80° 284° (WNW) 01:18:45 145.880/145.840
NANOSAT C BR1 19 Oct 01:15:20 01:19:37 88° 273° (W) 01:23:50 145.865
50 SAT 19 Oct 01:23:25 01:26:27 37° 73° (ENE) 01:29:30 437.505
DUCHIFAT 1 19 Oct 01:27:08 01:31:23 74° 284° (WNW) 01:35:34 145.980
AIST 2D 19 Oct 01:28:56 01:30:41 13° 292° (WNW) 01:32:26 435.315
BUGSAT 1 19 Oct 01:42:04 01:46:02 38° 98° (E) 01:49:56 437.445
SPROUT 19 Oct 01:47:08 01:50:15 20° 266° (W) 01:53:23 437.525
DX 1 19 Oct 01:52:46 01:57:05 79° 75° (ENE) 02:01:25 434.975-435.025
RS-15 19 Oct 02:07:03 02:19:21 77° 303° (WNW) 02:31:44 29.354- 29.394
Oscar 19 19 Oct 02:09:16 02:14:00 36° 98° (E) 02:18:41 437.125/150
VELOX 1 19 Oct 02:19:51 02:21:55 13° 268° (W) 02:24:02 145.980
UKube-1 19 Oct 02:20:30 02:24:47 80° 258° (WSW) 02:29:06 .
EO-79 19 Oct 02:23:04 02:25:27 15° 295° (WNW) 02:27:49 145.935-145.965
Gurwin Techsat 1B 19 Oct 02:26:48 02:31:44 38° 98° (E) 02:36:38 435.225
POLYITAN 1 19 Oct 02:27:34 02:29:38 13° 296° (WNW) 02:31:42 437.675
MOZHAYETS 4 19 Oct 02:34:37 02:37:54 19° 66° (ENE) 02:41:12
NO-84 19 Oct 02:36:37 02:37:45 11° 120° (ESE) 02:38:53 435.350 FM
ITUPSAT 1 19 Oct 02:47:05 02:50:56 25° 67° (ENE) 02:54:48 437.325
M-CUBED/EXP-1 PRIME 19 Oct 02:49:04 02:52:37 69° 108° (ESE) 02:56:24 437.505
BEESAT 19 Oct 03:03:10 03:07:31 36° 70° (ENE) 03:11:54 436.000
BUGSAT 1 19 Oct 03:18:16 03:21:03 17° 294° (WNW) 03:23:48 437.445
Oscar 19 19 Oct 03:48:57 03:53:06 25° 294° (WNW) 03:57:14 437.125/150
Gurwin Techsat 1B 19 Oct 04:07:06 04:11:28 26° 294° (WNW) 04:15:49 435.225
NO-84 19 Oct 04:10:17 04:14:36 87° 130° (SE) 04:18:52 435.350 FM
MOZHAYETS 4 19 Oct 04:10:22 04:14:44 40° 262° (W) 04:19:07
AO-7 19 Oct 04:13:32 04:21:30 48° 101° (E) 04:29:25 .
KKS-1 19 Oct 04:14:53 04:17:06 14° 64° (ENE) 04:19:21 437.445
CUBESAT XI-V 19 Oct 04:17:01 04:21:28 49° 73° (ENE) 04:25:55 437.345
ITAMSAT 1 19 Oct 04:17:23 04:22:13 37° 98° (E) 04:27:01 435.822/435.867
RS-15 19 Oct 04:24:07 04:34:16 28° 330° (NNW) 04:44:19 29.354- 29.394
ITUPSAT 1 19 Oct 04:24:14 04:28:34 34° 262° (W) 04:32:56 437.325
BEESAT 19 Oct 04:41:38 04:45:20 22° 265° (W) 04:49:05 436.000
STARS 19 Oct 04:52:15 04:54:29 14° 64° (ENE) 04:56:43 437.465
DOVE 4 19 Oct 05:42:55 05:47:30 35° 97° (E) 05:52:14 437.250
KKS-1 19 Oct 05:48:50 05:53:10 55° 259° (W) 05:57:33 437.445
NO-84 19 Oct 05:49:23 05:52:30 19° 332° (NNW) 05:55:32 435.350 FM
CUBESAT XI-V 19 Oct 05:56:22 05:59:04 15° 268° (W) 06:01:47 437.345
ITAMSAT 1 19 Oct 05:57:11 06:01:28 26° 294° (WNW) 06:05:45 435.822/435.867
AO-7 19 Oct 06:06:36 06:14:02 38° 299° (WNW) 06:21:29 .
STRAND 1 19 Oct 06:11:46 06:12:02 10° 59° (ENE) 06:12:18 437.568
CUTE-I 19 Oct 06:16:23 06:19:30 15° 91° (E) 06:22:36 437.470
XW-2F 19 Oct 06:22:54 06:25:10 15° 93° (E) 06:27:27 145.980 - 146.000
LilacSat-2 19 Oct 06:24:23 06:27:07 19° 94° (E) 06:29:50 437.200
KAITUO 1B 19 Oct 06:24:29 06:25:59 12° 92° (E) 06:27:31 145.475/437.950
STARS 19 Oct 06:26:03 06:30:19 54° 260° (W) 06:34:39 437.465
XW-2D 19 Oct 06:33:23 06:36:26 23° 95° (E) 06:39:28 145.860 - 145.880
NUDT-PHONESAT 19 Oct 06:40:18 06:42:56 19° 94° (E) 06:45:33 437.300
RS-15 19 Oct 06:44:40 06:52:44 19° 6° (N) 07:00:36 29.354- 29.394
XW-2B 19 Oct 06:46:30 06:49:54 32° 97° (E) 06:53:17 145.730 - 145.750
SO-50 19 Oct 07:01:26 07:05:26 33° 114° (ESE) 07:09:27 436.795
XW-2C 19 Oct 07:09:24 07:13:09 69° 102° (ESE) 07:16:51 145.795 - 145.815
O/OREOS (USA 219) 19 Oct 07:13:32 07:18:07 64° 67° (ENE) 07:22:39 437.305
DOVE 4 19 Oct 07:20:54 07:24:59 26° 291° (WNW) 07:29:12 437.250
CUTE 1.7 + AOD 2 19 Oct 07:25:38 07:28:47 20° 94° (E) 07:31:56 437.475
HO-68 19 Oct 07:34:18 07:40:46 35° 97° (E) 07:47:11 435.675
SEEDS 19 Oct 07:36:08 07:38:44 16° 93° (E) 07:41:21 437.485
STRAND 1 19 Oct 07:45:13 07:50:21 83° 74° (ENE) 07:55:30 437.568
CUTE-I 19 Oct 07:54:37 07:59:56 63° 287° (WNW) 08:05:13 437.470
PCSat 19 Oct 07:54:47 07:58:29 19° 105° (ESE) 08:02:10 145.827
XW-2F 19 Oct 07:56:04 07:59:20 30° 288° (WNW) 08:02:37 145.980 - 146.000
KAITUO 1B 19 Oct 07:56:42 08:00:08 37° 287° (WNW) 08:03:32 145.475/437.950
LilacSat-2 19 Oct 07:58:13 08:01:21 25° 289° (WNW) 08:04:28 437.200
AAUSAT CUBESAT 2 19 Oct 08:04:48 08:07:06 14° 92° (E) 08:09:23 437.432
XW-2D 19 Oct 08:07:39 08:10:28 20° 291° (WNW) 08:13:16 145.860 - 145.880
CUBEBUG 2 19 Oct 08:09:59 08:14:21 39° 97° (E) 08:18:33 437.445
NUDT-PHONESAT 19 Oct 08:13:45 08:16:44 24° 290° (WNW) 08:19:43 437.300
XW-2B 19 Oct 08:21:35 08:23:47 15° 293° (WNW) 08:25:59 145.730 - 145.750
ZACube-1 19 Oct 08:32:47 08:35:59 20° 93° (E) 08:39:06 437.345
XW-2A 19 Oct 08:36:02 08:39:16 45° 100° (E) 08:42:28 145.665 - 145.685
SO-50 19 Oct 08:42:06 08:45:53 26° 311° (NW) 08:49:43 436.795
UNISAT 6 19 Oct 08:50:21 08:52:06 12° 62° (ENE) 08:53:52 437.425
UWE-3 19 Oct 08:51:02 08:55:31 63° 100° (E) 08:59:51 435.000/436.395/437.385
O/OREOS (USA 219) 19 Oct 08:55:29 08:56:54 11° 263° (W) 08:58:18 437.305
RS-15 19 Oct 08:59:16 09:10:13 38° 40° (NE) 09:20:36 29.354- 29.394
CUTE 1.7 + AOD 2 19 Oct 09:00:57 09:04:38 30° 289° (WNW) 09:08:17 437.475
JUGNU 19 Oct 09:02:39 09:04:05 11° 180° (S) 09:05:31 437.505
FO-29 19 Oct 09:03:05 09:08:12 66° 73° (ENE) 09:13:40 435.910
TIGRISAT 19 Oct 09:04:26 09:07:10 16° 64° (ENE) 09:09:56 435.000
NO-84 19 Oct 09:09:56 09:10:24 10° 14° (NNE) 09:10:52 435.350 FM
SEEDS 19 Oct 09:10:41 09:14:32 37° 288° (WNW) 09:18:23 437.485
Oscar 11 19 Oct 09:11:32 09:15:23 31° 97° (E) 09:19:13 .
YUBILEINY 19 Oct 09:19:07 09:26:55 39° 86° (E) 09:34:44 435.215
HO-68 19 Oct 09:21:48 09:28:31 44° 294° (WNW) 09:35:13 435.675
STRAND 1 19 Oct 09:29:37 09:30:06 10° 271° (W) 09:30:36 437.568
PCSat 19 Oct 09:36:04 09:41:22 56° 302° (WNW) 09:46:44 145.827
AAUSAT CUBESAT 2 19 Oct 09:38:50 09:42:42 41° 287° (WNW) 09:46:34 437.432
DELFI C3 19 Oct 09:45:42 09:48:01 15° 93° (E) 09:50:19 145.870
nSIGHT-1 19 Oct 09:46:28 09:48:28 16° 130° (SE) 09:50:28 .
AO-73 19 Oct 09:46:51 09:51:11 66° 285° (WNW) 09:55:23 145.935
CUBEBUG 2 19 Oct 09:47:17 09:50:38 20° 294° (WNW) 09:53:54 437.445
ZACube-1 19 Oct 10:08:23 10:12:19 33° 289° (WNW) 10:16:10 437.345
ISS 19 Oct 10:14:56 10:17:45 27° 133° (SE) 10:20:33 437.550
PRISM 19 Oct 10:18:28 10:22:16 42° 72° (ENE) 10:26:06 437.425
UNISAT 6 19 Oct 10:23:32 10:28:08 72° 259° (W) 10:32:50 437.425
UWE-3 19 Oct 10:29:31 10:31:22 12° 297° (WNW) 10:33:10 435.000/436.395/437.385
AIST 2D 19 Oct 10:30:09 10:30:40 10° 66° (ENE) 10:31:12 435.315
TIGRISAT 19 Oct 10:38:51 10:43:22 53° 261° (W) 10:47:58 435.000
NO-84 19 Oct 10:45:24 10:48:52 33° 35° (NE) 10:52:04 435.350 FM
Oscar 11 19 Oct 10:48:05 10:51:18 21° 292° (WNW) 10:54:30 .
EO-88 19 Oct 10:48:48 10:52:17 43° 99° (E) 10:55:45 145.990 - 145.960
FO-29 19 Oct 10:51:41 10:53:59 13° 271° (W) 10:56:19 435.910
Max Valier Satellite 19 Oct 10:55:26 10:59:07 81° 101° (ESE) 11:02:46 145.860
RS-15 19 Oct 11:11:54 11:23:39 72° 245° (WSW) 11:34:46 29.354- 29.394
YUBILEINY 19 Oct 11:15:24 11:23:32 43° 285° (WNW) 11:31:45 435.215
DELFI C3 19 Oct 11:19:14 11:22:53 36° 287° (WNW) 11:26:31 145.870
nSIGHT-1 19 Oct 11:21:22 11:24:28 47° 326° (NW) 11:27:35 .
SRMSAT 19 Oct 11:23:10 11:24:45 11° 177° (S) 11:26:20 437.500
EO-79 19 Oct 11:37:06 11:40:48 29° 70° (ENE) 11:44:31 145.935-145.965
POLYITAN 1 19 Oct 11:41:18 11:45:08 33° 71° (ENE) 11:49:00 437.675
LO-87 19 Oct 11:42:55 11:45:55 24° 96° (E) 11:48:54 145.935 - 145.965
ISS 19 Oct 11:51:12 11:54:09 31° 330° (NNW) 11:57:07 437.550
PRISM 19 Oct 11:55:40 11:57:44 14° 267° (W) 11:59:47 437.425
AIST 2D 19 Oct 12:00:03 12:03:25 43° 261° (W) 12:06:47 435.315
QB50P2 19 Oct 12:01:03 12:05:15 63° 75° (ENE) 12:09:30 145.880/145.840
BEESAT 3 19 Oct 12:04:52 12:08:01 23° 112° (ESE) 12:11:12 437.485
NANOSAT C BR1 19 Oct 12:05:40 12:09:48 56° 74° (ENE) 12:13:59 145.865
DUCHIFAT 1 19 Oct 12:17:04 12:21:15 66° 76° (ENE) 12:25:29 145.980
NO-84 19 Oct 12:23:07 12:26:06 24° 234° (SW) 12:28:52 435.350 FM
EO-88 19 Oct 12:24:28 12:25:30 11° 294° (WNW) 12:26:32 145.990 - 145.960
BUGSAT 1 19 Oct 12:30:42 12:34:00 23° 68° (ENE) 12:37:20 437.445
VELOX 1 19 Oct 12:34:56 12:35:38 10° 90° (E) 12:36:19 145.980
ESTCUBE 1 19 Oct 12:36:44 12:41:12 75° 101° (E) 12:45:41 437.505/2401.250
nSIGHT-1 19 Oct 12:59:58 13:01:22 12° 344° (NNW) 13:02:46 .
EO-79 19 Oct 13:13:15 13:16:32 22° 265° (W) 13:19:51 145.935-145.965
LO-87 19 Oct 13:16:33 13:19:09 19° 291° (WNW) 13:21:44 145.935 - 145.965
POLYITAN 1 19 Oct 13:17:50 13:20:57 20° 266° (W) 13:24:06 437.675
BEESAT 2 19 Oct 13:21:48 13:25:37 47° 116° (ESE) 13:29:31 435.950
Oscar 19 19 Oct 13:24:45 13:29:42 48° 71° (ENE) 13:34:38 437.125/150
AO-7 19 Oct 13:24:54 13:28:01 13° 46° (NE) 13:31:08 .
RS-15 19 Oct 13:28:38 13:33:40 14° 265° (W) 13:38:37 29.354- 29.394
ISS 19 Oct 13:30:36 13:31:26 11° 349° (N) 13:32:16 437.550
SPROUT 19 Oct 13:32:18 13:36:37 75° 102° (ESE) 13:40:54 437.525
M-CUBED/EXP-1 PRIME 19 Oct 13:34:06 13:37:31 69° 71° (ENE) 13:40:48 437.505
QB50P2 19 Oct 13:41:00 13:41:25 10° 270° (W) 13:41:49 145.880/145.840
BEESAT 3 19 Oct 13:41:51 13:45:24 30° 308° (NW) 13:48:59 437.485
DX 1 19 Oct 13:43:25 13:45:53 15° 93° (E) 13:48:20 434.975-435.025
NANOSAT C BR1 19 Oct 13:44:27 13:45:50 11° 269° (W) 13:47:12 145.865
Gurwin Techsat 1B 19 Oct 13:46:33 13:51:42 54° 72° (ENE) 13:56:53 435.225
AO-85 19 Oct 14:03:39 14:07:31 89° 321° (NW) 14:11:29 145.980
BUGSAT 1 19 Oct 14:05:38 14:09:12 27° 264° (W) 14:12:49 437.445
VELOX 1 19 Oct 14:08:03 14:12:27 66° 285° (WNW) 14:16:51 145.980
UKube-1 19 Oct 14:09:30 14:12:28 18° 94° (E) 14:15:25 .
50 SAT 19 Oct 14:15:22 14:18:30 39° 99° (E) 14:21:38 437.505
ESTCUBE 1 19 Oct 14:16:31 14:17:21 10° 298° (WNW) 14:18:12 437.505/2401.250
BEESAT 2 19 Oct 15:00:55 15:03:36 17° 314° (NW) 15:06:19 435.950
Oscar 19 19 Oct 15:05:37 15:09:14 19° 267° (W) 15:12:51 437.125/150
ISS 19 Oct 15:08:33 15:09:08 10° 10° (N) 15:09:45 437.550
AO-7 19 Oct 15:10:59 15:19:03 59° 67° (ENE) 15:27:08 .
DX 1 19 Oct 15:18:05 15:22:16 46° 287° (WNW) 15:26:27 434.975-435.025
Gurwin Techsat 1B 19 Oct 15:28:27 15:31:57 18° 268° (W) 15:35:28 435.225
SO-50 19 Oct 15:33:29 15:37:17 24° 48° (NE) 15:41:05 436.795
ITAMSAT 1 19 Oct 15:34:01 15:39:01 51° 71° (ENE) 15:44:03 435.822/435.867
UKube-1 19 Oct 15:44:35 15:48:35 37° 289° (WNW) 15:52:33 .
MOZHAYETS 4 19 Oct 16:06:13 16:10:40 49° 99° (E) 16:15:04
nSIGHT-1 19 Oct 16:13:41 16:16:08 20° 25° (NNE) 16:18:34 .
CUBESAT XI-V 19 Oct 16:16:22 16:18:27 13° 91° (E) 16:20:33 437.345
ITUPSAT 1 19 Oct 16:25:12 16:30:00 67° 102° (ESE) 16:34:44 437.325
BEESAT 19 Oct 16:41:27 16:46:15 82° 286° (WNW) 16:51:01 436.000
PCSat 19 Oct 16:43:11 16:46:14 15° 43° (NE) 16:49:16 145.827
ISS 19 Oct 16:43:34 16:46:28 28° 29° (NNE) 16:49:22 437.550
DOVE 4 19 Oct 16:48:01 16:51:29 26° 69° (ENE) 16:55:03 437.250
AO-7 19 Oct 17:05:13 17:12:10 29° 264° (W) 17:19:09 .
SO-50 19 Oct 17:13:31 17:17:50 39° 245° (WSW) 17:22:12 436.795
ITAMSAT 1 19 Oct 17:15:14 17:18:44 18° 267° (W) 17:22:16 435.822/435.867
XW-2D 19 Oct 17:15:30 17:16:23 11° 65° (ENE) 17:17:17 145.860 - 145.880
XW-2B 19 Oct 17:27:34 17:29:42 15° 67° (ENE) 17:31:50 145.730 - 145.750
CUTE-I 19 Oct 17:36:41 17:40:50 24° 65° (ENE) 17:44:59 437.470
KKS-1 19 Oct 17:41:01 17:44:57 29° 97° (E) 17:48:51 437.445
MOZHAYETS 4 19 Oct 17:44:38 17:47:23 16° 295° (WNW) 17:50:06
nSIGHT-1 19 Oct 17:49:28 17:52:37 57° 223° (SW) 17:55:46 .
XW-2C 19 Oct 17:49:29 17:52:43 27° 71° (ENE) 17:55:57 145.795 - 145.815
CUBESAT XI-V 19 Oct 17:51:39 17:56:09 56° 286° (WNW) 18:00:39 437.345
HO-68 19 Oct 18:02:43 18:08:08 24° 59° (ENE) 18:13:33 435.675
ITUPSAT 1 19 Oct 18:04:57 18:07:13 13° 298° (WNW) 18:09:29 437.325
STARS 19 Oct 18:16:38 18:20:30 28° 97° (E) 18:24:18 437.465
CUTE 1.7 + AOD 2 19 Oct 18:18:12 18:20:16 13° 65° (ENE) 18:22:19 437.475
ISS 19 Oct 18:20:00 18:22:57 31° 226° (SW) 18:25:53 437.550
PCSat 19 Oct 18:24:57 18:30:24 89° 64° (ENE) 18:35:49 145.827
DOVE 4 19 Oct 18:25:48 18:29:08 23° 266° (W) 18:32:34 437.250
SEEDS 19 Oct 18:28:59 18:29:23 10° 63° (ENE) 18:29:46 437.485
KAITUO 1B 19 Oct 18:34:35 18:38:19 75° 77° (ENE) 18:42:02 145.475/437.950
XW-2F 19 Oct 18:34:39 18:38:27 83° 259° (W) 18:42:14 145.980 - 146.000
LilacSat-2 19 Oct 18:37:47 18:41:36 64° 259° (W) 18:45:24 437.200
XW-2D 19 Oct 18:46:23 18:50:05 51° 261° (W) 18:53:48 145.860 - 145.880
NUDT-PHONESAT 19 Oct 18:50:25 18:54:07 69° 259° (W) 18:57:50 437.300
XW-2B 19 Oct 19:00:02 19:03:33 35° 262° (W) 19:07:04 145.730 - 145.750
CUBEBUG 2 19 Oct 19:06:29 19:10:29 29° 69° (ENE) 19:14:33 437.445
XW-2A 19 Oct 19:07:09 19:08:52 13° 68° (ENE) 19:10:34 145.665 - 145.685
CUTE-I 19 Oct 19:15:34 19:20:35 42° 261° (W) 19:25:39 437.470
KKS-1 19 Oct 19:17:43 19:21:20 25° 292° (WNW) 19:24:58 437.445
XW-2C 19 Oct 19:24:12 19:26:53 18° 266° (W) 19:29:35 145.795 - 145.815
ZACube-1 19 Oct 19:27:46 19:30:25 15° 65° (ENE) 19:33:04 437.345
YUBILEINY 19 Oct 19:31:24 19:36:54 18° 63° (ENE) 19:42:23 435.215
UWE-3 19 Oct 19:46:04 19:50:27 43° 72° (ENE) 19:54:53 435.000/436.395/437.385
HO-68 19 Oct 19:48:07 19:55:13 67° 257° (WSW) 20:02:24 435.675
CUTE 1.7 + AOD 2 19 Oct 19:51:31 19:55:38 50° 261° (W) 19:59:45 437.475
STARS 19 Oct 19:53:04 19:56:41 25° 292° (WNW) 20:00:17 437.465
STRAND 1 19 Oct 19:57:17 20:01:51 31° 97° (E) 20:06:23 437.568
SEEDS 19 Oct 20:00:19 20:04:28 67° 259° (W) 20:08:38 437.485
Oscar 11 19 Oct 20:05:24 20:08:43 22° 68° (ENE) 20:12:03 .
PCSat 19 Oct 20:11:53 20:12:57 11° 259° (WSW) 20:14:01 145.827
FO-29 19 Oct 20:15:31 20:17:13 11° 88° (E) 20:18:57 435.910
BEESAT 3 19 Oct 20:23:24 20:24:50 12° 42° (NE) 20:26:16 437.485
AAUSAT CUBESAT 2 19 Oct 20:26:55 20:31:01 78° 258° (WSW) 20:35:08 437.432
XW-2A 19 Oct 20:38:13 20:41:16 30° 263° (W) 20:44:21 145.665 - 145.685
AO-73 19 Oct 20:40:05 20:44:38 80° 78° (ENE) 20:49:13 145.935
CUBEBUG 2 19 Oct 20:43:05 20:47:00 27° 265° (W) 20:51:02 437.445
ZACube-1 19 Oct 21:01:45 21:06:12 52° 261° (W) 21:10:43 437.345
UWE-3 19 Oct 21:23:58 21:27:04 18° 268° (W) 21:30:12 435.000/436.395/437.385
O/OREOS (USA 219) 19 Oct 21:24:18 21:28:50 86° 289° (WNW) 21:33:28 437.305
EO-88 19 Oct 21:26:01 21:28:22 16° 68° (ENE) 21:30:43 145.990 - 145.960
YUBILEINY 19 Oct 21:26:07 21:34:58 88° 84° (E) 21:43:49 435.215
Max Valier Satellite 19 Oct 21:32:58 21:36:11 28° 71° (ENE) 21:39:25 145.860
STRAND 1 19 Oct 21:36:29 21:40:55 30° 292° (WNW) 21:45:21 437.568
BEESAT 2 19 Oct 21:40:46 21:43:54 21° 48° (NE) 21:46:59 435.950
Oscar 11 19 Oct 21:40:49 21:44:40 31° 263° (W) 21:48:32 .
FO-29 19 Oct 21:56:03 22:03:00 71° 102° (ESE) 22:10:38 435.910
BEESAT 3 19 Oct 21:58:56 22:02:55 77° 239° (WSW) 22:06:46 437.485
DELFI C3 19 Oct 22:02:28 22:06:22 81° 258° (WSW) 22:10:18 145.870
UNISAT 6 19 Oct 22:16:56 22:20:50 27° 95° (E) 22:24:38 437.425
TIGRISAT 19 Oct 22:31:43 22:35:57 35° 97° (E) 22:40:04 435.000
AO-85 19 Oct 22:34:52 22:39:22 54° 56° (NE) 22:44:12 145.980
EO-88 19 Oct 22:58:35 23:01:46 28° 263° (W) 23:04:58 145.990 - 145.960
Max Valier Satellite 19 Oct 23:07:31 23:10:01 17° 266° (W) 23:12:31 145.860
BEESAT 2 19 Oct 23:18:02 23:21:43 34° 245° (WSW) 23:25:19 435.950
RS-15 19 Oct 23:24:19 23:32:33 21° 99° (E) 23:40:47 29.354- 29.394
YUBILEINY 19 Oct 23:25:22 23:30:29 17° 282° (WNW) 23:35:38 435.215
AIST 2D 19 Oct 23:27:12 23:28:56 13° 93° (E) 23:30:40 435.315
ESTCUBE 1 19 Oct 23:34:41 23:39:05 58° 74° (ENE) 23:43:30 437.505/2401.250
PRISM 19 Oct 23:35:25 23:39:34 84° 105° (ESE) 23:43:42 437.425
FO-29 19 Oct 23:42:24 23:47:29 23° 297° (WNW) 23:52:57 435.910
QB50P2 19 Oct 23:49:28 23:50:39 11° 90° (E) 23:51:50 145.880/145.840
LO-87 19 Oct 23:49:56 23:53:26 55° 260° (W) 23:57:01 145.935 - 145.965
UNISAT 6 19 Oct 23:53:32 23:57:27 28° 291° (WNW) 00:01:16 437.425
DUCHIFAT 1 20 Oct 00:04:28 00:05:46 11° 91° (E) 00:07:03 145.980
TIGRISAT 20 Oct 00:08:53 00:12:22 22° 293° (WNW) 00:15:47 435.000
AO-85 20 Oct 00:16:25 00:19:27 17° 250° (WSW) 00:22:36 145.980
SPROUT 20 Oct 00:24:00 00:28:06 47° 73° (ENE) 00:32:13 437.525
DX 1 20 Oct 00:38:58 00:40:31 12° 63° (ENE) 00:42:05 434.975-435.025
50 SAT 20 Oct 00:44:47 00:45:43 11° 66° (ENE) 00:46:39 437.505
EO-79 20 Oct 00:57:44 01:01:59 65° 100° (E) 01:06:11 145.935-145.965
AIST 2D 20 Oct 00:59:07 01:02:11 30° 287° (WNW) 01:05:14 435.315
